Time,TemperatureF,DewpointF,PressureIn,WindDirection,WindDirectionDegrees,WindSpeedMPH,WindSpeedGustMPH,Humidity,HourlyPrecipIn,Conditions,Clouds,dailyrainin,SolarRadiationWatts/m^2,SoftwareType,DateUTC
2013-06-22 00:02:00,59.9,57.9,30.27,ESE,113,2.0,10.0,90,0.00,,,0.00,0.0,meteohub,2013-06-22 04:02:00,
2013-06-22 00:06:00,60.1,58.1,30.27,ESE,113,0.0,10.0,90,0.00,,,0.00,0.0,meteohub,2013-06-22 04:06:00,
2013-06-22 00:07:00,60.1,58.1,30.27,ESE,113,0.0,10.0,90,0.00,,,0.00,0.0,meteohub,2013-06-22 04:07:00,
2013-06-22 00:12:00,60.1,58.1,30.27,WNW,288,2.0,10.0,90,0.00,,,0.00,0.0,meteohub,2013-06-22 04:12:00,
2013-06-22 00:17:00,59.9,57.9,30.26,WNW,288,0.0,4.0,90,0.00,,,0.00,0.0,meteohub,2013-06-22 04:17:00,
2013-06-22 00:21:00,59.9,57.9,30.27,WNW,288,0.0,4.0,90,0.00,,,0.00,0.0,meteohub,2013-06-22 04:21:00,
2013-06-22 00:27:00,59.9,57.9,30.27,SW,233,0.0,4.0,90,0.00,,,0.00,0.0,meteohub,2013-06-22 04:27:00,
2013-06-22 00:32:00,59.9,58.1,30.27,SW,233,0.0,2.0,91,0.00,,,0.00,0.0,meteohub,2013-06-22 04:32:00,
2013-06-22 00:37:00,59.9,57.9,30.27,SW,233,0.0,2.0,90,0.00,,,0.00,0.0,meteohub,2013-06-22 04:37:00,
2013-06-22 00:42:00,59.9,58.1,30.26,SW,233,0.0,1.0,91,0.00,,,0.00,0.0,meteohub,2013-06-22 04:42:00,
2013-06-22 00:47:00,59.7,57.9,30.26,SW,233,0.0,0.0,91,0.00,,,0.00,0.0,meteohub,2013-06-22 04:47:00,
2013-06-22 00:52:00,59.7,57.7,30.26,SW,233,0.0,0.0,90,0.00,,,0.00,0.0,meteohub,2013-06-22 04:52:00,
2013-06-22 00:57:00,59.5,57.7,30.26,SW,233,0.0,0.0,91,0.00,,,0.00,0.0,meteohub,2013-06-22 04:57:00,
2013-06-22 01:02:00,59.4,57.4,30.25,SW,233,0.0,0.0,90,0.00,,,0.00,0.0,meteohub,2013-06-22 05:02:00,
2013-06-22 01:07:00,59.4,57.4,30.25,SW,233,0.0,0.0,90,0.00,,,0.00,0.0,meteohub,2013-06-22 05:07:00,
2013-06-22 01:12:00,59.2,57.2,30.25,SW,233,0.0,0.0,90,0.00,,,0.00,0.0,meteohub,2013-06-22 05:12:00,
2013-06-22 01:17:00,59.2,57.2,30.25,SW,233,0.0,0.0,90,0.00,,,0.00,0.0,meteohub,2013-06-22 05:17:00,
2013-06-22 01:22:00,59.2,57.4,30.25,SW,233,0.0,0.0,91,0.00,,,0.00,0.0,meteohub,2013-06-22 05:22:00,
2013-06-22 01:27:00,59.0,57.2,30.25,SW,233,0.0,0.0,91,0.00,,,0.00,0.0,meteohub,2013-06-22 05:27:00,
2013-06-22 01:32:00,58.8,57.0,30.25,SW,233,0.0,0.0,91,0.00,,,0.00,0.0,meteohub,2013-06-22 05:32:00,
2013-06-22 01:37:00,58.8,57.0,30.25,SW,233,0.0,0.0,91,0.00,,,0.00,0.0,meteohub,2013-06-22 05:37:00,
2013-06-22 01:42:00,58.8,57.0,30.25,SW,233,0.0,0.0,91,0.00,,,0.00,0.0,meteohub,2013-06-22 05:42:00,
2013-06-22 01:47:00,58.6,56.8,30.25,SW,233,0.0,0.0,91,0.00,,,0.00,0.0,meteohub,2013-06-22 05:47:00,
2013-06-22 01:52:00,58.5,56.7,30.24,SW,233,0.0,0.0,91,0.00,,,0.00,0.0,meteohub,2013-06-22 05:52:00,
2013-06-22 01:57:00,58.5,56.7,30.24,SW,233,0.0,0.0,91,0.00,,,0.00,0.0,meteohub,2013-06-22 05:57:00,
2013-06-22 02:02:00,58.5,56.7,30.25,SW,233,0.0,0.0,91,0.00,,,0.00,0.0,meteohub,2013-06-22 06:02:00,
2013-06-22 02:07:00,58.3,56.5,30.25,SW,233,0.0,0.0,91,0.00,,,0.00,0.0,meteohub,2013-06-22 06:07:00,
2013-06-22 02:12:00,58.3,56.5,30.25,SW,233,0.0,0.0,91,0.00,,,0.00,0.0,meteohub,2013-06-22 06:12:00,
2013-06-22 02:17:00,58.3,56.5,30.25,SW,233,0.0,0.0,91,0.00,,,0.00,0.0,meteohub,2013-06-22 06:17:00,
2013-06-22 02:22:00,58.1,56.3,30.25,SW,233,0.0,0.0,91,0.00,,,0.00,0.0,meteohub,2013-06-22 06:22:00,
2013-06-22 02:27:00,58.1,56.3,30.25,SW,233,0.0,0.0,91,0.00,,,0.00,0.0,meteohub,2013-06-22 06:27:00,
2013-06-22 02:32:00,57.9,56.1,30.26,SW,233,0.0,0.0,91,0.00,,,0.00,0.0,meteohub,2013-06-22 06:32:00,
2013-06-22 02:37:00,57.9,56.1,30.26,SW,233,0.0,0.0,91,0.00,,,0.00,0.0,meteohub,2013-06-22 06:37:00,
2013-06-22 02:42:00,57.9,56.1,30.25,SW,233,0.0,0.0,91,0.00,,,0.00,0.0,meteohub,2013-06-22 06:42:00,
2013-06-22 02:47:00,57.7,55.9,30.26,SW,233,0.0,0.0,91,0.00,,,0.00,0.0,meteohub,2013-06-22 06:47:00,
2013-06-22 02:52:00,57.6,55.8,30.26,SW,233,0.0,0.0,91,0.00,,,0.00,0.0,meteohub,2013-06-22 06:52:00,
2013-06-22 02:57:00,57.6,55.8,30.26,SW,233,0.0,0.0,91,0.00,,,0.00,0.0,meteohub,2013-06-22 06:57:00,
2013-06-22 03:02:00,57.6,55.8,30.26,SW,233,0.0,0.0,91,0.00,,,0.00,0.0,meteohub,2013-06-22 07:02:00,
2013-06-22 03:07:00,57.6,55.8,30.26,SW,233,0.0,0.0,91,0.00,,,0.00,0.0,meteohub,2013-06-22 07:07:00,
2013-06-22 03:12:00,57.6,55.8,30.26,SW,233,0.0,0.0,91,0.00,,,0.00,0.0,meteohub,2013-06-22 07:12:00,
2013-06-22 03:17:00,57.6,55.8,30.26,SW,233,0.0,0.0,91,0.00,,,0.00,0.0,meteohub,2013-06-22 07:17:00,
2013-06-22 03:22:00,57.6,55.8,30.26,SW,233,0.0,0.0,91,0.00,,,0.00,0.0,meteohub,2013-06-22 07:22:00,
2013-06-22 03:27:00,57.4,55.6,30.26,SW,233,0.0,0.0,91,0.00,,,0.00,0.0,meteohub,2013-06-22 07:27:00,
2013-06-22 03:32:00,57.6,55.8,30.26,SW,233,0.0,0.0,91,0.00,,,0.00,0.0,meteohub,2013-06-22 07:32:00,
2013-06-22 03:37:00,57.6,55.8,30.26,SW,233,0.0,0.0,91,0.00,,,0.00,0.0,meteohub,2013-06-22 07:37:00,
2013-06-22 03:42:00,57.6,55.8,30.26,SW,233,0.0,0.0,91,0.00,,,0.00,0.0,meteohub,2013-06-22 07:42:00,
2013-06-22 03:47:00,57.6,55.8,30.26,SW,233,0.0,0.0,91,0.00,,,0.00,0.0,meteohub,2013-06-22 07:47:00,
2013-06-22 03:52:00,57.6,55.8,30.26,SW,233,0.0,0.0,91,0.00,,,0.00,0.0,meteohub,2013-06-22 07:52:00,
2013-06-22 03:57:00,57.6,56.1,30.26,SW,233,0.0,0.0,92,0.00,,,0.00,0.0,meteohub,2013-06-22 07:57:00,
2013-06-22 04:02:00,57.7,56.3,30.26,SW,233,0.0,0.0,92,0.00,,,0.00,0.0,meteohub,2013-06-22 08:02:00,
2013-06-22 04:07:00,57.6,55.8,30.26,SW,233,0.0,0.0,91,0.00,,,0.00,0.0,meteohub,2013-06-22 08:07:00,
2013-06-22 04:12:00,57.6,55.8,30.26,SW,233,0.0,0.0,91,0.00,,,0.00,0.0,meteohub,2013-06-22 08:12:00,
2013-06-22 04:17:00,57.6,55.8,30.26,SW,233,0.0,0.0,91,0.00,,,0.00,0.0,meteohub,2013-06-22 08:17:00,
2013-06-22 04:22:00,57.6,55.8,30.26,SW,233,0.0,0.0,91,0.00,,,0.00,0.0,meteohub,2013-06-22 08:22:00,
2013-06-22 04:27:00,57.4,55.6,30.26,SW,233,0.0,0.0,91,0.00,,,0.00,0.0,meteohub,2013-06-22 08:27:00,
2013-06-22 04:32:00,57.4,55.6,30.26,SW,233,0.0,0.0,91,0.00,,,0.00,0.0,meteohub,2013-06-22 08:32:00,
2013-06-22 04:37:00,57.4,55.6,30.26,SW,233,0.0,0.0,91,0.00,,,0.00,0.0,meteohub,2013-06-22 08:37:00,
2013-06-22 04:42:00,57.4,55.6,30.26,SW,233,0.0,0.0,91,0.00,,,0.00,0.0,meteohub,2013-06-22 08:42:00,
2013-06-22 04:47:00,57.2,55.4,30.26,SW,233,0.0,0.0,91,0.00,,,0.00,0.0,meteohub,2013-06-22 08:47:00,
2013-06-22 04:52:00,57.2,55.4,30.26,SW,233,0.0,0.0,91,0.00,,,0.00,0.0,meteohub,2013-06-22 08:52:00,
2013-06-22 04:57:00,57.2,55.4,30.26,SW,233,0.0,0.0,91,0.00,,,0.00,0.0,meteohub,2013-06-22 08:57:00,
2013-06-22 05:02:00,57.0,55.2,30.26,SW,233,0.0,0.0,91,0.00,,,0.00,0.0,meteohub,2013-06-22 09:02:00,
2013-06-22 05:07:00,57.0,55.2,30.26,SW,234,0.0,1.0,91,0.00,,,0.00,0.0,meteohub,2013-06-22 09:07:00,
2013-06-22 05:12:00,57.0,55.2,30.26,SW,234,0.0,1.0,91,0.00,,,0.00,0.0,meteohub,2013-06-22 09:12:00,
2013-06-22 05:17:00,57.0,55.2,30.26,SW,234,0.0,1.0,91,0.00,,,0.00,0.0,meteohub,2013-06-22 09:17:00,
2013-06-22 05:22:00,57.0,55.2,30.26,SW,234,0.0,1.0,91,0.00,,,0.00,0.0,meteohub,2013-06-22 09:22:00,
2013-06-22 05:27:00,57.0,55.2,30.26,SW,234,0.0,0.0,91,0.00,,,0.00,0.0,meteohub,2013-06-22 09:27:00,
2013-06-22 05:32:00,56.8,55.4,30.26,SW,234,0.0,0.0,92,0.00,,,0.00,0.0,meteohub,2013-06-22 09:32:00,
2013-06-22 05:37:00,57.0,55.6,30.26,SW,234,0.0,0.0,92,0.00,,,0.00,0.0,meteohub,2013-06-22 09:37:00,
2013-06-22 05:42:00,57.0,55.6,30.26,SW,234,0.0,0.0,92,0.00,,,0.00,0.0,meteohub,2013-06-22 09:42:00,
2013-06-22 05:47:00,57.2,55.8,30.26,SW,234,0.0,0.0,92,0.00,,,0.00,0.0,meteohub,2013-06-22 09:47:00,
2013-06-22 05:52:00,57.2,55.8,30.26,SW,234,0.0,0.0,92,0.00,,,0.00,0.0,meteohub,2013-06-22 09:52:00,
2013-06-22 05:57:00,57.4,55.9,30.27,SW,234,0.0,0.0,92,0.00,,,0.00,0.0,meteohub,2013-06-22 09:57:00,
2013-06-22 06:02:00,57.6,56.1,30.27,SW,234,0.0,0.0,92,0.00,,,0.00,0.0,meteohub,2013-06-22 10:02:00,
2013-06-22 06:07:00,57.6,56.1,30.27,SW,234,0.0,0.0,92,0.00,,,0.00,0.0,meteohub,2013-06-22 10:07:00,
2013-06-22 06:12:00,57.6,56.1,30.27,SW,234,0.0,0.0,92,0.00,,,0.00,5.0,meteohub,2013-06-22 10:12:00,
2013-06-22 06:17:00,57.7,56.3,30.27,SW,234,0.0,0.0,92,0.00,,,0.00,18.0,meteohub,2013-06-22 10:17:00,
2013-06-22 06:22:00,57.9,56.5,30.26,SW,234,0.0,0.0,92,0.00,,,0.00,25.0,meteohub,2013-06-22 10:22:00,
2013-06-22 06:27:00,58.1,56.7,30.26,SW,234,0.0,0.0,92,0.00,,,0.00,28.0,meteohub,2013-06-22 10:27:00,
2013-06-22 06:32:00,58.3,56.8,30.27,SW,234,0.0,0.0,92,0.00,,,0.00,33.0,meteohub,2013-06-22 10:32:00,
2013-06-22 06:37:00,58.3,56.8,30.26,SW,234,0.0,0.0,92,0.00,,,0.00,35.0,meteohub,2013-06-22 10:37:00,
2013-06-22 06:42:00,58.5,57.0,30.26,SW,234,0.0,0.0,92,0.00,,,0.00,49.0,meteohub,2013-06-22 10:42:00,
2013-06-22 06:47:00,58.5,57.0,30.26,SW,234,1.0,2.0,92,0.00,,,0.00,69.0,meteohub,2013-06-22 10:47:00,
2013-06-22 06:52:00,58.6,58.1,30.26,SW,234,0.0,2.0,95,0.00,,,0.00,81.0,meteohub,2013-06-22 10:52:00,
2013-06-22 06:57:00,59.0,57.6,30.26,SW,234,0.0,2.0,92,0.00,,,0.00,72.0,meteohub,2013-06-22 10:57:00,
2013-06-22 07:02:00,59.2,57.7,30.26,SW,234,0.0,2.0,92,0.00,,,0.00,90.0,meteohub,2013-06-22 11:02:00,
2013-06-22 07:07:00,59.4,58.3,30.25,SW,234,0.0,0.0,93,0.00,,,0.00,176.0,meteohub,2013-06-22 11:07:00,
2013-06-22 07:12:00,59.7,58.3,30.25,SW,234,0.0,0.0,92,0.00,,,0.00,141.0,meteohub,2013-06-22 11:12:00,
2013-06-22 07:17:00,59.9,58.8,30.25,SW,234,0.0,2.0,93,0.00,,,0.00,162.0,meteohub,2013-06-22 11:17:00,
2013-06-22 07:22:00,60.1,58.6,30.25,SW,234,0.0,3.0,92,0.00,,,0.00,100.0,meteohub,2013-06-22 11:22:00,
2013-06-22 07:27:00,60.4,59.0,30.25,SW,222,0.0,3.0,92,0.00,,,0.00,72.0,meteohub,2013-06-22 11:27:00,
2013-06-22 07:32:00,60.6,59.2,30.25,SW,222,0.0,1.0,92,0.00,,,0.00,69.0,meteohub,2013-06-22 11:32:00,
2013-06-22 07:37:00,61.0,59.5,30.25,SW,218,0.0,1.0,92,0.00,,,0.00,83.0,meteohub,2013-06-22 11:37:00,
2013-06-22 07:42:00,61.2,59.7,30.25,SSE,168,0.0,1.0,92,0.00,,,0.00,113.0,meteohub,2013-06-22 11:42:00,
2013-06-22 07:47:00,61.5,60.1,30.25,SSE,168,0.0,1.0,92,0.00,,,0.00,113.0,meteohub,2013-06-22 11:47:00,
2013-06-22 07:52:00,61.7,60.3,30.25,NE,36,1.0,2.0,92,0.00,,,0.00,86.0,meteohub,2013-06-22 11:52:00,
2013-06-22 08:00:00,62.1,60.6,30.25,NE,36,0.0,4.0,92,0.00,,,0.00,135.0,meteohub,2013-06-22 12:00:00,
2013-06-22 08:06:00,62.4,60.6,30.25,NE,36,0.0,4.0,91,0.00,,,0.00,162.0,meteohub,2013-06-22 12:06:00,
2013-06-22 08:12:00,62.8,61.3,30.25,NE,36,0.0,2.0,92,0.00,,,0.00,250.0,meteohub,2013-06-22 12:12:00,
2013-06-22 08:17:00,63.3,61.9,30.25,NE,36,0.0,2.0,92,0.00,,,0.00,255.0,meteohub,2013-06-22 12:17:00,
2013-06-22 08:22:00,63.7,61.9,30.25,South,187,2.0,2.0,91,0.00,,,0.00,431.0,meteohub,2013-06-22 12:22:00,
2013-06-22 08:27:00,64.4,62.6,30.25,South,187,0.0,3.0,91,0.00,,,0.00,459.0,meteohub,2013-06-22 12:27:00,
2013-06-22 08:32:00,64.9,62.8,30.25,South,187,0.0,3.0,90,0.00,,,0.00,482.0,meteohub,2013-06-22 12:32:00,
2013-06-22 08:37:00,65.7,63.5,30.25,NNW,334,0.0,3.0,90,0.00,,,0.00,501.0,meteohub,2013-06-22 12:37:00,
2013-06-22 08:42:00,66.2,63.5,30.25,NNW,334,0.0,1.0,88,0.00,,,0.00,519.0,meteohub,2013-06-22 12:42:00,
2013-06-22 08:47:00,66.9,63.5,30.25,WNW,284,0.0,2.0,86,0.00,,,0.00,536.0,meteohub,2013-06-22 12:47:00,
2013-06-22 08:52:00,67.3,63.9,30.25,SW,215,1.0,2.0,86,0.00,,,0.00,548.0,meteohub,2013-06-22 12:52:00,
2013-06-22 08:57:00,68.2,64.4,30.25,SW,215,0.0,3.0,85,0.00,,,0.00,566.0,meteohub,2013-06-22 12:57:00,
2013-06-22 09:02:00,69.1,65.3,30.25,SW,215,0.0,3.0,85,0.00,,,0.00,582.0,meteohub,2013-06-22 13:02:00,
2013-06-22 09:07:00,70.0,65.8,30.24,South,180,2.0,3.0,84,0.00,,,0.00,601.0,meteohub,2013-06-22 13:07:00,
2013-06-22 09:12:00,70.5,65.8,30.24,South,180,0.0,3.0,82,0.00,,,0.00,615.0,meteohub,2013-06-22 13:12:00,
2013-06-22 09:17:00,70.9,65.5,30.24,ESE,109,0.0,3.0,80,0.00,,,0.00,633.0,meteohub,2013-06-22 13:17:00,
2013-06-22 09:22:00,71.4,66.4,30.24,ESE,110,1.0,3.0,81,0.00,,,0.00,649.0,meteohub,2013-06-22 13:22:00,
2013-06-22 09:27:00,72.0,66.6,30.24,South,189,3.0,3.0,80,0.00,,,0.00,670.0,meteohub,2013-06-22 13:27:00,
2013-06-22 09:32:00,72.0,66.6,30.24,South,187,0.0,3.0,80,0.00,,,0.00,694.0,meteohub,2013-06-22 13:32:00,
2013-06-22 09:37:00,72.5,66.7,30.24,South,178,2.0,3.0,79,0.00,,,0.00,584.0,meteohub,2013-06-22 13:37:00,
2013-06-22 09:42:00,73.2,67.1,30.24,East,96,2.0,3.0,78,0.00,,,0.00,729.0,meteohub,2013-06-22 13:42:00,
2013-06-22 09:47:00,73.8,67.6,30.24,ENE,63,0.0,3.0,78,0.00,,,0.00,724.0,meteohub,2013-06-22 13:47:00,
2013-06-22 09:52:00,74.5,67.5,30.23,ENE,64,1.0,3.0,76,0.00,,,0.00,745.0,meteohub,2013-06-22 13:52:00,
2013-06-22 09:57:00,74.8,67.1,30.24,ENE,64,0.0,3.0,74,0.00,,,0.00,761.0,meteohub,2013-06-22 13:57:00,
2013-06-22 10:02:00,75.2,67.5,30.24,SE,134,3.0,3.0,74,0.00,,,0.00,782.0,meteohub,2013-06-22 14:02:00,
2013-06-22 10:07:00,75.2,67.5,30.23,ESE,103,1.0,4.0,74,0.00,,,0.00,819.0,meteohub,2013-06-22 14:07:00,
2013-06-22 10:12:00,75.4,67.3,30.23,ESE,104,3.0,4.0,73,0.00,,,0.00,842.0,meteohub,2013-06-22 14:12:00,
2013-06-22 10:17:00,75.6,67.5,30.23,East,86,0.0,4.0,73,0.00,,,0.00,888.0,meteohub,2013-06-22 14:17:00,
2013-06-22 10:22:00,76.3,68.5,30.23,ENE,71,1.0,4.0,74,0.00,,,0.00,911.0,meteohub,2013-06-22 14:22:00,
2013-06-22 10:27:00,76.3,67.3,30.23,South,180,2.0,6.0,71,0.00,,,0.00,963.0,meteohub,2013-06-22 14:27:00,
2013-06-22 10:32:00,76.1,67.6,30.23,SE,140,2.0,6.0,72,0.00,,,0.00,986.0,meteohub,2013-06-22 14:32:00,
2013-06-22 10:37:00,76.3,67.3,30.22,ESE,105,2.0,6.0,71,0.00,,,0.00,1109.0,meteohub,2013-06-22 14:37:00,
2013-06-22 10:42:00,76.5,68.4,30.22,SE,137,2.0,5.0,73,0.00,,,0.00,360.0,meteohub,2013-06-22 14:42:00,
2013-06-22 10:47:00,76.5,67.5,30.22,SSW,199,2.0,5.0,71,0.00,,,0.00,441.0,meteohub,2013-06-22 14:47:00,
2013-06-22 10:52:00,76.3,68.2,30.22,East,91,3.0,7.0,73,0.00,,,0.00,417.0,meteohub,2013-06-22 14:52:00,
2013-06-22 10:57:00,76.3,67.8,30.23,ESE,117,4.0,9.0,72,0.00,,,0.00,422.0,meteohub,2013-06-22 14:57:00,
2013-06-22 11:02:00,76.5,68.7,30.22,SSE,153,3.0,9.0,74,0.00,,,0.00,986.0,meteohub,2013-06-22 15:02:00,
2013-06-22 11:07:00,76.6,68.2,30.22,SSE,155,2.0,9.0,72,0.00,,,0.00,1025.0,meteohub,2013-06-22 15:07:00,
2013-06-22 11:14:00,77.2,68.5,30.23,SW,225,2.0,7.0,72,0.00,,,0.00,1127.0,meteohub,2013-06-22 15:14:00,
2013-06-22 11:20:00,77.9,68.9,30.23,SSE,147,4.0,6.0,71,0.00,,,0.00,315.0,meteohub,2013-06-22 15:20:00,
2013-06-22 11:26:00,78.1,68.7,30.23,South,181,2.0,6.0,70,0.00,,,0.00,257.0,meteohub,2013-06-22 15:26:00,
2013-06-22 11:32:00,77.5,68.2,30.23,South,170,4.0,6.0,70,0.00,,,0.00,411.0,meteohub,2013-06-22 15:32:00,
2013-06-22 11:37:00,77.2,68.2,30.23,South,180,4.0,6.0,71,0.00,,,0.00,339.0,meteohub,2013-06-22 15:37:00,
2013-06-22 11:42:00,77.2,68.2,30.23,West,280,2.0,7.0,71,0.00,,,0.00,445.0,meteohub,2013-06-22 15:42:00,
2013-06-22 11:47:00,77.0,67.3,30.23,SSW,202,4.0,7.0,69,0.00,,,0.00,248.0,meteohub,2013-06-22 15:47:00,
2013-06-22 11:52:00,76.6,67.6,30.23,SSW,196,0.0,7.0,71,0.00,,,0.00,1155.0,meteohub,2013-06-22 15:52:00,
2013-06-22 11:57:00,77.0,68.0,30.23,SE,136,1.0,7.0,71,0.00,,,0.00,1160.0,meteohub,2013-06-22 15:57:00,
2013-06-22 12:02:00,77.2,68.2,30.23,South,190,4.0,7.0,71,0.00,,,0.00,322.0,meteohub,2013-06-22 16:02:00,
2013-06-22 12:07:00,77.4,68.4,30.23,SSE,167,5.0,6.0,71,0.00,,,0.00,492.0,meteohub,2013-06-22 16:07:00,
2013-06-22 12:12:00,77.4,69.3,30.23,East,98,4.0,7.0,73,0.00,,,0.00,1238.0,meteohub,2013-06-22 16:12:00,
2013-06-22 12:17:00,77.7,69.1,30.23,South,180,3.0,7.0,72,0.00,,,0.00,1188.0,meteohub,2013-06-22 16:17:00,
2013-06-22 12:22:00,78.1,68.4,30.23,SE,145,6.0,7.0,69,0.00,,,0.00,1199.0,meteohub,2013-06-22 16:22:00,
2013-06-22 12:27:00,78.6,70.0,30.23,ESE,107,3.0,11.0,72,0.00,,,0.00,1238.0,meteohub,2013-06-22 16:27:00,
2013-06-22 12:32:00,78.6,68.0,30.23,SSE,167,4.0,11.0,67,0.00,,,0.00,1065.0,meteohub,2013-06-22 16:32:00,
2013-06-22 12:37:00,78.1,67.8,30.23,SE,146,4.0,12.0,68,0.00,,,0.00,1065.0,meteohub,2013-06-22 16:37:00,
2013-06-22 12:42:00,78.6,69.6,30.23,SW,233,6.0,12.0,71,0.00,,,0.00,1197.0,meteohub,2013-06-22 16:42:00,
2013-06-22 12:47:00,79.0,68.0,30.23,South,184,7.0,11.0,66,0.00,,,0.00,1238.0,meteohub,2013-06-22 16:47:00,
2013-06-22 12:52:00,79.0,68.4,30.23,NW,309,0.0,10.0,67,0.00,,,0.00,636.0,meteohub,2013-06-22 16:52:00,
2013-06-22 12:57:00,79.2,67.6,30.23,SSE,159,3.0,10.0,65,0.00,,,0.00,1176.0,meteohub,2013-06-22 16:57:00,
2013-06-22 13:02:00,79.5,67.1,30.23,South,190,0.0,10.0,63,0.00,,,0.00,1194.0,meteohub,2013-06-22 17:02:00,
2013-06-22 13:07:00,79.5,67.6,30.23,SSE,148,5.0,9.0,64,0.00,,,0.00,1178.0,meteohub,2013-06-22 17:07:00,
2013-06-22 13:12:00,79.3,67.5,30.23,SE,128,4.0,9.0,64,0.00,,,0.00,1139.0,meteohub,2013-06-22 17:12:00,
2013-06-22 13:17:00,79.3,68.2,30.23,ENE,65,0.0,9.0,66,0.00,,,0.00,1188.0,meteohub,2013-06-22 17:17:00,
2013-06-22 13:22:00,79.9,68.0,30.23,SE,134,6.0,10.0,64,0.00,,,0.00,1206.0,meteohub,2013-06-22 17:22:00,
2013-06-22 13:27:00,80.4,68.4,30.23,ESE,116,0.0,10.0,64,0.00,,,0.00,1150.0,meteohub,2013-06-22 17:27:00,
2013-06-22 13:32:00,80.8,68.4,30.23,NE,53,2.0,10.0,63,0.00,,,0.00,1211.0,meteohub,2013-06-22 17:32:00,
2013-06-22 13:37:00,81.3,68.9,30.23,ESE,116,2.0,12.0,63,0.00,,,0.00,1229.0,meteohub,2013-06-22 17:37:00,
2013-06-22 13:43:00,81.5,68.5,30.23,SE,131,2.0,12.0,62,0.00,,,0.00,1137.0,meteohub,2013-06-22 17:43:00,
2013-06-22 13:49:00,81.5,68.5,30.22,ESE,121,4.0,12.0,62,0.00,,,0.00,1164.0,meteohub,2013-06-22 17:49:00,
2013-06-22 13:55:00,81.1,68.2,30.22,SSW,198,3.0,10.0,62,0.00,,,0.00,1178.0,meteohub,2013-06-22 17:55:00,
2013-06-22 14:01:00,81.3,68.9,30.22,SSW,199,5.0,10.0,63,0.00,,,0.00,1134.0,meteohub,2013-06-22 18:01:00,
2013-06-22 14:07:00,81.5,69.4,30.22,East,87,1.0,7.0,64,0.00,,,0.00,1071.0,meteohub,2013-06-22 18:07:00,
2013-06-22 14:12:00,81.5,68.2,30.22,West,278,0.0,7.0,61,0.00,,,0.00,991.0,meteohub,2013-06-22 18:12:00,
2013-06-22 14:17:00,81.7,67.8,30.22,SSW,213,1.0,7.0,60,0.00,,,0.00,972.0,meteohub,2013-06-22 18:17:00,
2013-06-22 14:22:00,81.9,68.0,30.22,South,180,0.0,7.0,60,0.00,,,0.00,960.0,meteohub,2013-06-22 18:22:00,
2013-06-22 14:27:00,82.2,69.3,30.21,WNW,292,2.0,7.0,62,0.00,,,0.00,1028.0,meteohub,2013-06-22 18:27:00,
2013-06-22 14:32:00,82.8,68.9,30.21,West,273,3.0,7.0,60,0.00,,,0.00,849.0,meteohub,2013-06-22 18:32:00,
2013-06-22 14:37:00,83.1,70.2,30.20,WSW,249,0.0,6.0,62,0.00,,,0.00,981.0,meteohub,2013-06-22 18:37:00,
2013-06-22 14:42:00,83.7,69.6,30.20,WSW,249,0.0,4.0,60,0.00,,,0.00,944.0,meteohub,2013-06-22 18:42:00,
2013-06-22 14:47:00,83.8,70.3,30.20,SW,234,0.0,4.0,61,0.00,,,0.00,953.0,meteohub,2013-06-22 18:47:00,
2013-06-22 14:52:00,84.0,68.5,30.19,ESE,118,1.0,3.0,57,0.00,,,0.00,967.0,meteohub,2013-06-22 18:52:00,
2013-06-22 14:57:00,84.4,68.0,30.19,ENE,68,2.0,4.0,55,0.00,,,0.00,946.0,meteohub,2013-06-22 18:57:00,
2013-06-22 15:02:00,84.7,66.7,30.19,East,89,3.0,6.0,52,0.00,,,0.00,865.0,meteohub,2013-06-22 19:02:00,
2013-06-22 15:07:00,84.7,68.4,30.19,ESE,110,3.0,6.0,55,0.00,,,0.00,979.0,meteohub,2013-06-22 19:07:00,
2013-06-22 15:14:00,84.7,68.4,30.18,ESE,107,1.0,5.0,55,0.00,,,0.00,589.0,meteohub,2013-06-22 19:14:00,
2013-06-22 15:20:00,84.7,68.4,30.18,SE,129,1.0,5.0,55,0.00,,,0.00,942.0,meteohub,2013-06-22 19:20:00,
2013-06-22 15:26:00,84.4,68.5,30.18,ESE,111,5.0,5.0,56,0.00,,,0.00,923.0,meteohub,2013-06-22 19:26:00,
2013-06-22 15:32:00,84.0,69.6,30.17,ESE,110,5.0,7.0,59,0.00,,,0.00,895.0,meteohub,2013-06-22 19:32:00,
2013-06-22 15:37:00,83.3,68.4,30.17,ESE,119,5.0,10.0,58,0.00,,,0.00,842.0,meteohub,2013-06-22 19:37:00,
2013-06-22 15:42:00,83.1,68.7,30.17,ESE,118,5.0,10.0,59,0.00,,,0.00,823.0,meteohub,2013-06-22 19:42:00,
2013-06-22 15:47:00,82.9,69.1,30.16,SE,134,5.0,8.0,60,0.00,,,0.00,816.0,meteohub,2013-06-22 19:47:00,
2013-06-22 15:52:00,83.1,69.3,30.16,SSE,148,5.0,7.0,60,0.00,,,0.00,798.0,meteohub,2013-06-22 19:52:00,
2013-06-22 15:57:00,83.7,69.3,30.16,ENE,75,1.0,7.0,59,0.00,,,0.00,791.0,meteohub,2013-06-22 19:57:00,
2013-06-22 16:02:00,84.0,69.1,30.16,SE,130,1.0,7.0,58,0.00,,,0.00,779.0,meteohub,2013-06-22 20:02:00,
2013-06-22 16:07:00,84.6,68.5,30.15,SE,130,2.0,7.0,56,0.00,,,0.00,747.0,meteohub,2013-06-22 20:07:00,
2013-06-22 16:12:00,84.7,68.7,30.15,South,170,0.0,6.0,56,0.00,,,0.00,751.0,meteohub,2013-06-22 20:12:00,
2013-06-22 16:17:00,84.7,69.3,30.15,SE,126,1.0,5.0,57,0.00,,,0.00,726.0,meteohub,2013-06-22 20:17:00,
2013-06-22 16:22:00,84.9,70.0,30.15,ESE,110,0.0,5.0,58,0.00,,,0.00,708.0,meteohub,2013-06-22 20:22:00,
2013-06-22 16:27:00,85.3,68.7,30.15,East,91,1.0,4.0,55,0.00,,,0.00,694.0,meteohub,2013-06-22 20:27:00,
2013-06-22 16:32:00,85.3,69.3,30.15,SE,130,1.0,4.0,56,0.00,,,0.00,684.0,meteohub,2013-06-22 20:32:00,
2013-06-22 16:37:00,85.5,68.9,30.15,East,94,2.0,6.0,55,0.00,,,0.00,670.0,meteohub,2013-06-22 20:37:00,
2013-06-22 16:42:00,85.5,70.5,30.14,East,81,2.0,7.0,58,0.00,,,0.00,661.0,meteohub,2013-06-22 20:42:00,
2013-06-22 16:47:00,85.5,69.4,30.15,SE,128,0.0,7.0,56,0.00,,,0.00,691.0,meteohub,2013-06-22 20:47:00,
2013-06-22 16:52:00,85.5,68.9,30.14,East,98,0.0,7.0,55,0.00,,,0.00,715.0,meteohub,2013-06-22 20:52:00,
2013-06-22 16:57:00,85.5,68.5,30.14,ESE,109,2.0,5.0,54,0.00,,,0.00,707.0,meteohub,2013-06-22 20:57:00,
2013-06-22 17:02:00,85.6,70.2,30.14,SE,130,0.0,6.0,57,0.00,,,0.00,659.0,meteohub,2013-06-22 21:02:00,
2013-06-22 17:07:00,85.8,69.8,30.14,ESE,111,5.0,7.0,56,0.00,,,0.00,626.0,meteohub,2013-06-22 21:07:00,
2013-06-22 17:12:00,85.3,70.3,30.14,SE,135,4.0,8.0,58,0.00,,,0.00,596.0,meteohub,2013-06-22 21:12:00,
2013-06-22 17:17:00,85.1,69.6,30.14,SSW,202,3.0,8.0,57,0.00,,,0.00,561.0,meteohub,2013-06-22 21:17:00,
2013-06-22 17:22:00,85.1,70.2,30.14,ESE,118,1.0,8.0,58,0.00,,,0.00,515.0,meteohub,2013-06-22 21:22:00,
2013-06-22 17:27:00,84.9,70.0,30.14,ESE,123,4.0,7.0,58,0.00,,,0.00,536.0,meteohub,2013-06-22 21:27:00,
2013-06-22 17:32:00,84.9,70.0,30.12,SSE,153,8.0,8.0,58,0.00,,,0.00,536.0,meteohub,2013-06-22 21:32:00,
2013-06-22 17:37:00,84.6,70.2,30.13,ESE,113,3.0,8.0,59,0.00,,,0.00,211.0,meteohub,2013-06-22 21:37:00,
2013-06-22 17:42:00,84.2,68.7,30.12,SE,125,1.0,8.0,57,0.00,,,0.00,554.0,meteohub,2013-06-22 21:42:00,
2013-06-22 17:47:00,84.0,69.1,30.13,ENE,64,2.0,10.0,58,0.00,,,0.00,561.0,meteohub,2013-06-22 21:47:00,
2013-06-22 17:52:00,84.0,69.1,30.13,ESE,111,2.0,10.0,58,0.00,,,0.00,483.0,meteohub,2013-06-22 21:52:00,
2013-06-22 17:57:00,83.7,69.3,30.13,ESE,108,4.0,10.0,59,0.00,,,0.00,162.0,meteohub,2013-06-22 21:57:00,
2013-06-22 18:02:00,83.3,69.4,30.13,SE,126,3.0,9.0,60,0.00,,,0.00,230.0,meteohub,2013-06-22 22:02:00,
2013-06-22 18:07:00,82.9,69.4,30.13,ESE,110,2.0,11.0,61,0.00,,,0.00,178.0,meteohub,2013-06-22 22:07:00,
2013-06-22 18:12:00,82.8,69.8,30.13,SSE,159,10.0,11.0,62,0.00,,,0.00,171.0,meteohub,2013-06-22 22:12:00,
2013-06-22 18:17:00,81.3,70.5,30.14,South,169,4.0,24.0,67,0.00,,,0.00,171.0,meteohub,2013-06-22 22:17:00,
2013-06-22 18:22:00,79.9,70.5,30.14,East,90,5.0,24.0,70,0.00,,,0.00,167.0,meteohub,2013-06-22 22:22:00,
2013-06-22 18:27:00,79.2,70.2,30.14,SSE,153,9.0,24.0,71,0.00,,,0.00,151.0,meteohub,2013-06-22 22:27:00,
2013-06-22 18:32:00,78.6,70.0,30.14,East,88,4.0,17.0,72,0.00,,,0.00,178.0,meteohub,2013-06-22 22:32:00,
2013-06-22 18:37:00,77.9,69.6,30.15,ESE,121,7.0,15.0,73,0.00,,,0.00,153.0,meteohub,2013-06-22 22:37:00,
2013-06-22 18:42:00,77.4,69.3,30.15,ENE,74,2.0,15.0,73,0.00,,,0.00,134.0,meteohub,2013-06-22 22:42:00,
2013-06-22 18:47:00,77.0,69.3,30.15,ESE,105,1.0,15.0,74,0.00,,,0.00,153.0,meteohub,2013-06-22 22:47:00,
2013-06-22 18:52:00,77.0,69.6,30.15,ESE,115,5.0,15.0,75,0.00,,,0.00,190.0,meteohub,2013-06-22 22:52:00,
2013-06-22 18:57:00,76.8,69.4,30.15,SE,139,2.0,10.0,75,0.00,,,0.00,141.0,meteohub,2013-06-22 22:57:00,
2013-06-22 19:02:00,76.6,68.9,30.15,ESE,119,10.0,10.0,74,0.00,,,0.00,141.0,meteohub,2013-06-22 23:02:00,
2013-06-22 19:07:00,76.5,68.7,30.15,SE,146,7.0,12.0,74,0.00,,,0.00,134.0,meteohub,2013-06-22 23:07:00,
2013-06-22 19:12:00,76.5,68.7,30.15,ESE,113,7.0,12.0,74,0.00,,,0.00,135.0,meteohub,2013-06-22 23:12:00,
2013-06-22 19:17:00,76.5,68.7,30.15,East,94,3.0,12.0,74,0.00,,,0.00,128.0,meteohub,2013-06-22 23:17:00,
2013-06-22 19:22:00,76.5,68.7,30.15,SE,129,2.0,11.0,74,0.00,,,0.00,111.0,meteohub,2013-06-22 23:22:00,
2013-06-22 19:27:00,76.5,68.4,30.15,SE,132,3.0,10.0,73,0.00,,,0.00,102.0,meteohub,2013-06-22 23:27:00,
2013-06-22 19:32:00,76.5,68.4,30.15,ESE,119,4.0,7.0,73,0.00,,,0.00,118.0,meteohub,2013-06-22 23:32:00,
2013-06-22 19:37:00,76.5,68.7,30.15,ESE,118,3.0,7.0,74,0.00,,,0.00,97.0,meteohub,2013-06-22 23:37:00,
2013-06-22 19:42:00,76.5,68.7,30.15,ESE,121,2.0,6.0,74,0.00,,,0.00,88.0,meteohub,2013-06-22 23:42:00,
2013-06-22 19:47:00,76.5,68.4,30.15,SE,139,4.0,5.0,73,0.00,,,0.00,88.0,meteohub,2013-06-22 23:47:00,
2013-06-22 19:52:00,76.6,68.9,30.15,ESE,119,5.0,9.0,74,0.00,,,0.00,95.0,meteohub,2013-06-22 23:52:00,
2013-06-22 19:57:00,76.5,68.7,30.15,East,97,3.0,9.0,74,0.00,,,0.00,97.0,meteohub,2013-06-22 23:57:00,
2013-06-22 20:02:00,76.5,68.7,30.15,SE,132,4.0,7.0,74,0.00,,,0.00,90.0,meteohub,2013-06-23 00:02:00,
2013-06-22 20:07:00,76.3,68.9,30.15,East,89,2.0,7.0,75,0.00,,,0.00,84.0,meteohub,2013-06-23 00:07:00,
2013-06-22 20:12:00,76.3,68.9,30.15,East,99,1.0,7.0,75,0.00,,,0.00,81.0,meteohub,2013-06-23 00:12:00,
2013-06-22 20:17:00,76.1,68.7,30.15,SE,126,5.0,5.0,75,0.00,,,0.00,72.0,meteohub,2013-06-23 00:17:00,
2013-06-22 20:22:00,76.1,68.7,30.15,East,101,1.0,5.0,75,0.00,,,0.00,54.0,meteohub,2013-06-23 00:22:00,
2013-06-22 20:27:00,75.9,68.9,30.15,ESE,103,2.0,5.0,76,0.00,,,0.00,40.0,meteohub,2013-06-23 00:27:00,
2013-06-22 20:32:00,75.9,68.9,30.15,ESE,103,0.0,5.0,76,0.00,,,0.00,30.0,meteohub,2013-06-23 00:32:00,
2013-06-22 20:37:00,75.6,68.5,30.15,ESE,103,0.0,4.0,76,0.00,,,0.00,21.0,meteohub,2013-06-23 00:37:00,
2013-06-22 20:42:00,75.6,68.9,30.16,ESE,103,0.0,4.0,77,0.00,,,0.00,9.0,meteohub,2013-06-23 00:42:00,
2013-06-22 20:47:00,75.4,69.1,30.16,ESE,103,1.0,1.0,78,0.00,,,0.00,0.0,meteohub,2013-06-23 00:47:00,
2013-06-22 20:54:00,75.0,69.1,30.16,ESE,103,0.0,2.0,79,0.00,,,0.00,0.0,meteohub,2013-06-23 00:54:00,
2013-06-22 21:00:00,74.5,68.9,30.15,ESE,103,0.0,2.0,80,0.00,,,0.00,0.0,meteohub,2013-06-23 01:00:00,
2013-06-22 21:06:00,74.1,68.9,30.15,ESE,103,0.0,0.0,81,0.00,,,0.00,0.0,meteohub,2013-06-23 01:06:00,
2013-06-22 21:12:00,73.8,68.5,30.16,ESE,103,0.0,0.0,81,0.00,,,0.00,0.0,meteohub,2013-06-23 01:12:00,
2013-06-22 21:17:00,73.6,68.7,30.16,ESE,103,0.0,0.0,82,0.00,,,0.00,0.0,meteohub,2013-06-23 01:17:00,
2013-06-22 21:22:00,73.4,68.5,30.15,ESE,103,0.0,0.0,82,0.00,,,0.00,0.0,meteohub,2013-06-23 01:22:00,
2013-06-22 21:27:00,73.2,68.7,30.16,ESE,103,0.0,0.0,83,0.00,,,0.00,0.0,meteohub,2013-06-23 01:27:00,
2013-06-22 21:32:00,72.9,68.4,30.16,ESE,103,0.0,0.0,83,0.00,,,0.00,0.0,meteohub,2013-06-23 01:32:00,
2013-06-22 21:37:00,72.9,68.7,30.17,ESE,103,0.0,0.0,84,0.00,,,0.00,0.0,meteohub,2013-06-23 01:37:00,
2013-06-22 21:42:00,72.7,68.5,30.17,ESE,103,0.0,0.0,84,0.00,,,0.00,0.0,meteohub,2013-06-23 01:42:00,
2013-06-22 21:47:00,72.7,68.2,30.17,ESE,103,3.0,0.0,83,0.00,,,0.00,0.0,meteohub,2013-06-23 01:47:00,
2013-06-22 21:52:00,72.7,68.5,30.17,ESE,103,0.0,4.0,84,0.00,,,0.00,0.0,meteohub,2013-06-23 01:52:00,
2013-06-22 21:57:00,72.9,68.7,30.18,ESE,103,0.0,4.0,84,0.00,,,0.00,0.0,meteohub,2013-06-23 01:57:00,
2013-06-22 22:02:00,72.9,68.7,30.18,ESE,103,0.0,4.0,84,0.00,,,0.00,0.0,meteohub,2013-06-23 02:02:00,
2013-06-22 22:07:00,73.0,68.9,30.18,ESE,103,0.0,1.0,84,0.00,,,0.00,0.0,meteohub,2013-06-23 02:07:00,
2013-06-22 22:12:00,72.9,68.7,30.18,ESE,103,0.0,2.0,84,0.00,,,0.00,0.0,meteohub,2013-06-23 02:12:00,
2013-06-22 22:17:00,72.9,68.7,30.18,ESE,103,0.0,2.0,84,0.00,,,0.00,0.0,meteohub,2013-06-23 02:17:00,
2013-06-22 22:22:00,73.0,68.9,30.18,ESE,103,0.0,2.0,84,0.00,,,0.00,0.0,meteohub,2013-06-23 02:22:00,
2013-06-22 22:27:00,73.0,68.9,30.18,ESE,103,0.0,4.0,84,0.00,,,0.00,0.0,meteohub,2013-06-23 02:27:00,
2013-06-22 22:32:00,73.2,69.1,30.18,ESE,103,1.0,4.0,84,0.00,,,0.00,0.0,meteohub,2013-06-23 02:32:00,
2013-06-22 22:37:00,73.2,69.1,30.18,ESE,103,0.0,4.0,84,0.00,,,0.00,0.0,meteohub,2013-06-23 02:37:00,
2013-06-22 22:42:00,73.2,69.1,30.18,ESE,103,0.0,2.0,84,0.00,,,0.00,0.0,meteohub,2013-06-23 02:42:00,
2013-06-22 22:47:00,73.2,69.1,30.18,South,190,1.0,3.0,84,0.00,,,0.00,0.0,meteohub,2013-06-23 02:47:00,
2013-06-22 22:52:00,73.2,69.4,30.18,South,190,0.0,5.0,85,0.00,,,0.00,0.0,meteohub,2013-06-23 02:52:00,
2013-06-22 22:57:00,73.0,69.3,30.18,South,190,2.0,5.0,85,0.00,,,0.00,0.0,meteohub,2013-06-23 02:57:00,
2013-06-22 23:02:00,72.9,69.1,30.18,South,190,0.0,4.0,85,0.00,,,0.00,0.0,meteohub,2013-06-23 03:02:00,
2013-06-22 23:07:00,72.9,69.1,30.18,South,190,0.0,2.0,85,0.00,,,0.00,0.0,meteohub,2013-06-23 03:07:00,
2013-06-22 23:12:00,72.9,69.1,30.18,South,190,0.0,2.0,85,0.00,,,0.00,0.0,meteohub,2013-06-23 03:12:00,
2013-06-22 23:17:00,72.9,69.1,30.18,ENE,75,1.0,4.0,85,0.00,,,0.00,0.0,meteohub,2013-06-23 03:17:00,
2013-06-22 23:22:00,72.9,69.1,30.18,ESE,111,3.0,6.0,85,0.00,,,0.00,0.0,meteohub,2013-06-23 03:22:00,
2013-06-22 23:27:00,72.7,68.9,30.18,ESE,111,3.0,6.0,85,0.00,,,0.00,0.0,meteohub,2013-06-23 03:27:00,
2013-06-22 23:32:00,72.7,68.9,30.19,ESE,111,0.0,6.0,85,0.00,,,0.00,0.0,meteohub,2013-06-23 03:32:00,
2013-06-22 23:37:00,72.7,68.9,30.19,ESE,111,0.0,5.0,85,0.00,,,0.00,0.0,meteohub,2013-06-23 03:37:00,
2013-06-22 23:42:00,72.7,68.9,30.19,ESE,111,0.0,3.0,85,0.00,,,0.00,0.0,meteohub,2013-06-23 03:42:00,
2013-06-22 23:47:00,72.5,69.1,30.19,ENE,61,2.0,2.0,86,0.00,,,0.00,0.0,meteohub,2013-06-23 03:47:00,
2013-06-22 23:52:00,72.5,69.1,30.18,ENE,68,1.0,4.0,86,0.00,,,0.00,0.0,meteohub,2013-06-23 03:52:00,
2013-06-22 23:57:00,72.5,69.1,30.18,ENE,68,2.0,4.0,86,0.00,,,0.00,0.0,meteohub,2013-06-23 03:57:00,